| time (UTC) | temp C | wind direction | speed KPH | gust KPH | rain 1hr cm | rain 24hr cm | rain mn cm | humidity % | barometer mb |
| 20260506204840 | 12 | 336 | 4.8 | 9.7 | 0.00 | 0.51 | 0.51 | 45 | 1012.9 |
| 20260506204337 | 12 | 345 | 4.8 | 12.9 | 0.00 | 0.51 | 0.51 | 45 | 1012.7 |
| 20260506203835 | 12 | 330 | 3.2 | 9.7 | 0.00 | 0.51 | 0.51 | 45 | 1012.9 |
| 20260506203332 | 12 | 334 | 3.2 | 4.8 | 0.00 | 0.51 | 0.51 | 47 | 1012.6 |
| 20260506202829 | 12 | 346 | 0.0 | 4.8 | 0.00 | 0.51 | 0.51 | 47 | 1012.6 |
| 20260506202326 | 12 | 351 | 4.8 | 6.4 | 0.00 | 0.51 | 0.51 | 46 | 1012.7 |
| 20260506201822 | 12 | 303 | 1.6 | 6.4 | 0.00 | 0.51 | 0.51 | 44 | 1012.9 |
| 20260506201320 | 12 | 315 | 3.2 | 6.4 | 0.00 | 0.51 | 0.51 | 45 | 1012.6 |
| 20260506200816 | 12 | 357 | 3.2 | 9.7 | 0.00 | 0.51 | 0.51 | 45 | 1012.6 |
| 20260506200312 | 12 | 329 | 1.6 | 6.4 | 0.00 | 0.51 | 0.51 | 45 | 1012.9 |
| 20260506195809 | 12 | 331 | 1.6 | 4.8 | 0.00 | 0.51 | 0.51 | 45 | 1012.6 |
| 20260506195306 | 12 | 319 | 1.6 | 4.8 | 0.00 | 0.51 | 0.51 | 44 | 1012.6 |
| 20260506194803 | 12 | 313 | 3.2 | 6.4 | 0.00 | 0.51 | 0.51 | 43 | 1012.5 |
| 20260506194259 | 13 | 345 | 3.2 | 6.4 | 0.00 | 0.51 | 0.51 | 45 | 1012.7 |
| 20260506193757 | 13 | 291 | 3.2 | 6.4 | 0.00 | 0.51 | 0.51 | 43 | 1012.6 |
| 20260506193254 | 13 | 272 | 6.4 | 11.3 | 0.00 | 0.51 | 0.51 | 42 | 1012.5 |
| 20260506192750 | 13 | 287 | 1.6 | 4.8 | 0.00 | 0.51 | 0.51 | 44 | 1012.6 |
| 20260506192247 | 13 | 295 | 6.4 | 9.7 | 0.00 | 0.51 | 0.51 | 43 | 1012.7 |
| 20260506191744 | 13 | 273 | 3.2 | 9.7 | 0.00 | 0.51 | 0.51 | 43 | 1012.5 |
| 20260506191240 | 13 | 328 | 4.8 | 6.4 | 0.00 | 0.51 | 0.51 | 44 | 1012.5 |
| 20260506190737 | 13 | 276 | 4.8 | 4.8 | 0.00 | 0.51 | 0.51 | 47 | 1012.5 |
| 20260506190234 | 13 | 319 | 1.6 | 6.4 | 0.00 | 0.51 | 0.51 | 46 | 1012.6 |
| 20260506185731 | 13 | 349 | 1.6 | 4.8 | 0.00 | 0.51 | 0.51 | 45 | 1012.7 |
| 20260506185227 | 13 | 317 | 1.6 | 6.4 | 0.00 | 0.51 | 0.51 | 43 | 1012.6 |
| 20260506184725 | 13 | 309 | 3.2 | 4.8 | 0.00 | 0.51 | 0.51 | 45 | 1012.6 |
| 20260506184222 | 13 | 336 | 1.6 | 4.8 | 0.00 | 0.51 | 0.51 | 44 | 1012.7 |
| 20260506183719 | 13 | 314 | 4.8 | 11.3 | 0.00 | 0.51 | 0.51 | 46 | 1012.8 |
| 20260506183214 | 13 | 285 | 1.6 | 4.8 | 0.00 | 0.51 | 0.51 | 45 | 1012.5 |
| 20260506182712 | 13 | 328 | 3.2 | 4.8 | 0.00 | 0.51 | 0.51 | 44 | 1012.4 |
| 20260506182209 | 13 | 327 | 3.2 | 3.2 | 0.00 | 0.51 | 0.51 | 44 | 1012.4 |
| 20260506181707 | 12 | 243 | 1.6 | 4.8 | 0.00 | 0.51 | 0.51 | 46 | 1012.6 |
| 20260506181204 | 12 | 5 | 3.2 | 4.8 | 0.00 | 0.51 | 0.51 | 44 | 1012.6 |
| 20260506180701 | 12 | 312 | 4.8 | 9.7 | 0.00 | 0.51 | 0.51 | 45 | 1012.6 |
| 20260506180157 | 12 | 345 | 6.4 | 9.7 | 0.00 | 0.51 | 0.51 | 44 | 1012.4 |
| 20260506175653 | 13 | 356 | 1.6 | 4.8 | 0.00 | 0.51 | 0.51 | 47 | 1012.5 |
| 20260506175151 | 13 | 348 | 3.2 | 4.8 | 0.00 | 0.51 | 0.51 | 48 | 1012.5 |
| 20260506174649 | 13 | 307 | 1.6 | 6.4 | 0.00 | 0.51 | 0.51 | 43 | 1012.6 |
| 20260506174145 | 13 | 337 | 1.6 | 4.8 | 0.00 | 0.51 | 0.51 | 45 | 1012.7 |
| 20260506173643 | 13 | 347 | 1.6 | 3.2 | 0.00 | 0.51 | 0.51 | 46 | 1012.8 |
| 20260506173140 | 13 | 332 | 4.8 | 4.8 | 0.00 | 0.51 | 0.51 | 48 | 1012.7 |
| 20260506172637 | 12 | 358 | 1.6 | 4.8 | 0.00 | 0.51 | 0.51 | 50 | 1012.3 |
| 20260506172133 | 12 | 295 | 1.6 | 4.8 | 0.00 | 0.51 | 0.51 | 50 | 1012.6 |
| 20260506171631 | 12 | 333 | 3.2 | 6.4 | 0.00 | 0.51 | 0.51 | 47 | 1012.9 |
| 20260506171128 | 13 | 25 | 1.6 | 4.8 | 0.00 | 0.51 | 0.51 | 47 | 1012.7 |
| 20260506170626 | 12 | 335 | 4.8 | 9.7 | 0.00 | 0.51 | 0.51 | 49 | 1012.8 |
| 20260506170122 | 12 | 278 | 1.6 | 9.7 | 0.00 | 0.51 | 0.51 | 50 | 1012.8 |
| 20260506165621 | 13 | 355 | 4.8 | 11.3 | 0.00 | 0.51 | 0.51 | 46 | 1013.0 |
| 20260506165117 | 12 | 357 | 1.6 | 12.9 | 0.00 | 0.51 | 0.51 | 48 | 1012.9 |
| 20260506164614 | 12 | 341 | 3.2 | 4.8 | 0.00 | 0.51 | 0.51 | 48 | 1012.8 |
| 20260506164112 | 12 | 327 | 4.8 | 4.8 | 0.00 | 0.51 | 0.51 | 46 | 1012.8 |
| 20260506163607 | 12 | 329 | 1.6 | 1.6 | 0.00 | 0.51 | 0.51 | 48 | 1012.9 |
| 20260506163103 | 12 | 76 | 3.2 | 4.8 | 0.00 | 0.51 | 0.51 | 50 | 1013.1 |
| 20260506162559 | 12 | 6 | 4.8 | 11.3 | 0.00 | 0.51 | 0.51 | 46 | 1012.9 |
| 20260506162051 | 12 | 325 | 3.2 | 16.1 | 0.00 | 0.51 | 0.51 | 47 | 1012.7 |
| 20260506161549 | 12 | 305 | 3.2 | 9.7 | 0.00 | 0.51 | 0.51 | 47 | 1012.6 |
| 20260506161046 | 12 | 347 | 3.2 | 4.8 | 0.00 | 0.51 | 0.51 | 50 | 1012.8 |
| 20260506160543 | 12 | 316 | 4.8 | 9.7 | 0.00 | 0.51 | 0.51 | 47 | 1012.7 |
| 20260506160040 | 12 | 305 | 1.6 | 9.7 | 0.00 | 0.51 | 0.51 | 48 | 1012.7 |
| 20260506155538 | 11 | 32 | 1.6 | 4.8 | 0.00 | 0.51 | 0.51 | 47 | 1012.8 |
| 20260506153715 | 11 | 315 | 3.2 | 6.4 | 0.00 | 0.51 | 0.51 | 51 | 1012.6 |
| 20260506153212 | 12 | 344 | 4.8 | 6.4 | 0.00 | 0.51 | 0.51 | 53 | 1012.7 |
| 20260506152709 | 12 | 325 | 3.2 | 3.2 | 0.00 | 0.51 | 0.51 | 52 | 1012.1 |
| 20260506152207 | 11 | 94 | 1.6 | 3.2 | 0.00 | 0.51 | 0.51 | 54 | 1012.2 |
| 20260506151706 | 11 | 2 | 3.2 | 6.4 | 0.00 | 0.51 | 0.51 | 55 | 1012.2 |
| 20260506151201 | 11 | 348 | 3.2 | 3.2 | 0.00 | 0.51 | 0.51 | 58 | 1012.2 |
| 20260506150658 | 11 | 290 | 1.6 | 3.2 | 0.00 | 0.51 | 0.51 | 57 | 1012.1 |
| 20260506150155 | 11 | 320 | 1.6 | 3.2 | 0.00 | 0.51 | 0.51 | 57 | 1012.4 |
| 20260506145652 | 11 | 324 | 1.6 | 3.2 | 0.00 | 0.51 | 0.51 | 57 | 1012.2 |
| 20260506145149 | 11 | 131 | 1.6 | 6.4 | 0.00 | 0.51 | 0.51 | 60 | 1012.2 |
| 20260506144647 | 11 | 348 | 1.6 | 4.8 | 0.00 | 0.51 | 0.51 | 62 | 1012.2 |
| 20260506144143 | 11 | 344 | 4.8 | 11.3 | 0.00 | 0.51 | 0.51 | 59 | 1012.1 |
| 20260506143641 | 11 | 329 | 6.4 | 6.4 | 0.00 | 0.51 | 0.51 | 61 | 1011.9 |
| 20260506143139 | 11 | 292 | 1.6 | 6.4 | 0.00 | 0.51 | 0.51 | 62 | 1012.0 |
| 20260506142637 | 10 | 242 | 3.2 | 6.4 | 0.00 | 0.51 | 0.51 | 63 | 1011.7 |
| 20260506142135 | 10 | 317 | 1.6 | 1.6 | 0.00 | 0.51 | 0.51 | 68 | 1011.8 |
| 20260506141632 | 10 | 338 | 4.8 | 6.4 | 0.00 | 0.51 | 0.51 | 68 | 1011.8 |
| 20260506141130 | 10 | 330 | 3.2 | 3.2 | 0.00 | 0.51 | 0.51 | 69 | 1011.5 |
| 20260506140627 | 10 | 286 | 3.2 | 4.8 | 0.00 | 0.51 | 0.51 | 70 | 1011.4 |
| 20260506140125 | 10 | 312 | 4.8 | 9.7 | 0.00 | 0.51 | 0.51 | 69 | 1011.3 |
| 20260506135621 | 10 | 32 | 3.2 | 4.8 | 0.00 | 0.51 | 0.51 | 73 | 1011.4 |
| 20260506135118 | 10 | 319 | 1.6 | 1.6 | 0.00 | 0.51 | 0.51 | 74 | 1011.6 |
| 20260506134614 | 9 | 327 | 0.0 | 3.2 | 0.00 | 0.51 | 0.51 | 75 | 1011.3 |
| 20260506134110 | 9 | 330 | 1.6 | 3.2 | 0.00 | 0.51 | 0.51 | 74 | 1011.7 |
| 20260506133608 | 9 | 317 | 1.6 | 9.7 | 0.00 | 0.51 | 0.51 | 75 | 1011.7 |
| 20260506133104 | 9 | 325 | 3.2 | 4.8 | 0.00 | 0.51 | 0.51 | 78 | 1011.8 |
| 20260506132602 | 9 | 322 | 6.4 | 6.4 | 0.00 | 0.51 | 0.51 | 77 | 1011.7 |
| 20260506132058 | 9 | 327 | 1.6 | 3.2 | 0.00 | 0.51 | 0.51 | 80 | 1011.6 |
| 20260506131556 | 8 | 317 | 0.0 | 4.8 | 0.00 | 0.51 | 0.51 | 80 | 1011.6 |
| 20260506131052 | 8 | 203 | 0.0 | 4.8 | 0.00 | 0.51 | 0.51 | 84 | 1011.5 |
| 20260506130549 | 8 | 314 | 0.0 | 4.8 | 0.00 | 0.51 | 0.51 | 84 | 1011.1 |
| 20260506130047 | 8 | 333 | 6.4 | 9.7 | 0.00 | 0.51 | 0.51 | 86 | 1011.2 |
| 20260506125545 | 8 | 351 | 3.2 | 4.8 | 0.00 | 0.51 | 0.51 | 86 | 1011.1 |
| 20260506125042 | 8 | 336 | 1.6 | 1.6 | 0.00 | 0.51 | 0.51 | 87 | 1011.0 |
| 20260506124540 | 7 | 331 | 3.2 | 3.2 | 0.00 | 0.51 | 0.51 | 88 | 1010.9 |
| 20260506124037 | 7 | 336 | 1.6 | 1.6 | 0.00 | 0.51 | 0.51 | 89 | 1010.9 |
| 20260506123535 | 7 | 358 | 1.6 | 3.2 | 0.00 | 0.51 | 0.51 | 90 | 1010.8 |
| 20260506123033 | 7 | 314 | 1.6 | 1.6 | 0.00 | 0.51 | 0.51 | 91 | 1011.2 |
| 20260506122529 | 7 | 294 | 0.0 | 1.6 | 0.00 | 0.51 | 0.51 | 91 | 1010.8 |
| 20260506122028 | 7 | 277 | 1.6 | 1.6 | 0.00 | 0.51 | 0.51 | 92 | 1010.7 |
| 20260506121525 | 7 | 293 | 1.6 | 4.8 | 0.00 | 0.51 | 0.51 | 92 | 1010.7 |
| 20260506121021 | 7 | 286 | 1.6 | 4.8 | 0.00 | 0.51 | 0.51 | 93 | 1011.0 |
| 20260506120519 | 6 | 315 | 3.2 | 4.8 | 0.00 | 0.51 | 0.51 | 94 | 1011.0 |
| 20260506120016 | 6 | 322 | 1.6 | 3.2 | 0.00 | 0.51 | 0.51 | 94 | 1010.6 |
| 20260506115514 | 6 | 322 | 1.6 | 1.6 | 0.00 | 0.51 | 0.51 | 94 | 1010.3 |
| 20260506115012 | 6 | 324 | 0.0 | 0.0 | 0.00 | 0.51 | 0.51 | 95 | 1010.2 |
| 20260506114509 | 6 | 354 | 0.0 | 1.6 | 0.00 | 0.51 | 0.51 | 95 | 1010.2 |
| 20260506114008 | 6 | 329 | 1.6 | 1.6 | 0.00 | 0.51 | 0.51 | 95 | 1010.2 |
| 20260506113505 | 6 | 312 | 0.0 | 0.0 | 0.00 | 0.51 | 0.51 | 95 | 1010.0 |
| 20260506113002 | 6 | 293 | 0.0 | 0.0 | 0.00 | 0.51 | 0.51 | 95 | 1010.0 |
| 20260506112459 | 6 | 292 | 0.0 | 0.0 | 0.18 | 0.51 | 0.51 | 95 | 1010.0 |
| 20260506111956 | 6 | 308 | 0.0 | 0.0 | 0.18 | 0.51 | 0.51 | 95 | 1010.0 |
| 20260506111454 | 6 | 313 | 0.0 | 0.0 | 0.00 | 0.48 | 0.48 | 95 | 1009.8 |
| 20260506110951 | 6 | 309 | 0.0 | 0.0 | 0.00 | 0.48 | 0.48 | 95 | 1009.9 |
| 20260506110449 | 6 | 314 | 0.0 | 0.0 | 0.00 | 0.48 | 0.48 | 95 | 1010.2 |
| 20260506105945 | 6 | 310 | 0.0 | 1.6 | 0.00 | 0.48 | 0.48 | 95 | 1010.2 |
| 20260506105441 | 6 | 324 | 0.0 | 1.6 | 0.00 | 0.48 | 0.48 | 95 | 1010.0 |
| 20260506104939 | 6 | 324 | 0.0 | 1.6 | 0.00 | 0.48 | 0.48 | 95 | 1009.9 |
| 20260506104437 | 6 | 296 | 1.6 | 1.6 | 0.00 | 0.48 | 0.48 | 95 | 1009.7 |
| 20260506103935 | 6 | 302 | 0.0 | 1.6 | 0.00 | 0.48 | 0.48 | 95 | 1009.9 |
| 20260506103432 | 6 | 301 | 0.0 | 0.0 | 0.00 | 0.48 | 0.48 | 95 | 1009.6 |
| 20260506102929 | 6 | 284 | 0.0 | 0.0 | 0.00 | 0.48 | 0.48 | 95 | 1009.6 |
| 20260506102427 | 6 | 351 | 0.0 | 1.6 | 0.00 | 0.48 | 0.48 | 95 | 1009.5 |
| 20260506101924 | 6 | 310 | 0.0 | 1.6 | 0.00 | 0.48 | 0.48 | 95 | 1009.5 |
| 20260506101420 | 6 | 308 | 0.0 | 1.6 | 0.00 | 0.48 | 0.48 | 95 | 1009.3 |
| 20260506100918 | 6 | 328 | 0.0 | 0.0 | 0.00 | 0.48 | 0.48 | 95 | 1008.9 |
| 20260506100416 | 6 | 321 | 1.6 | 1.6 | 0.00 | 0.48 | 0.48 | 95 | 1008.7 |
| 20260506095913 | 6 | 305 | 0.0 | 0.0 | 0.00 | 0.48 | 0.48 | 95 | 1008.6 |
| 20260506095412 | 6 | 307 | 0.0 | 0.0 | 0.00 | 0.48 | 0.48 | 95 | 1008.6 |
| 20260506094907 | 6 | 297 | 0.0 | 0.0 | 0.00 | 0.48 | 0.48 | 95 | 1008.6 |
| 20260506094406 | 6 | 297 | 0.0 | 0.0 | 0.00 | 0.48 | 0.48 | 95 | 1008.9 |
| 20260506093904 | 6 | 213 | 0.0 | 0.0 | 0.00 | 0.48 | 0.48 | 95 | 1008.7 |
| 20260506093401 | 6 | 213 | 0.0 | 0.0 | 0.00 | 0.48 | 0.48 | 95 | 1008.7 |
| 20260506092859 | 6 | 213 | 0.0 | 0.0 | 0.00 | 0.48 | 0.48 | 95 | 1008.7 |
| 20260506092357 | 6 | 213 | 0.0 | 0.0 | 0.00 | 0.48 | 0.48 | 95 | 1008.8 |
| 20260506091853 | 6 | 213 | 0.0 | 0.0 | 0.00 | 0.48 | 0.48 | 95 | 1008.9 |
| 20260506091351 | 6 | 309 | 0.0 | 0.0 | 0.00 | 0.48 | 0.48 | 95 | 1008.9 |
| 20260506090848 | 6 | 322 | 0.0 | 0.0 | 0.00 | 0.48 | 0.48 | 95 | 1009.3 |
| 20260506090346 | 6 | 5 | 0.0 | 1.6 | 0.00 | 0.48 | 0.48 | 95 | 1009.4 |
| 20260506085842 | 6 | 335 | 0.0 | 1.6 | 0.00 | 0.48 | 0.48 | 95 | 1009.3 |
| 20260506085338 | 6 | 327 | 0.0 | 1.6 | 0.00 | 0.48 | 0.48 | 95 | 1009.3 |
| 20260506084835 | 6 | 336 | 0.0 | 0.0 | 0.00 | 0.48 | 0.48 | 95 | 1009.2 |
| 20260506084332 | 6 | 322 | 0.0 | 0.0 | 0.00 | 0.48 | 0.48 | 95 | 1008.7 |
| 20260506083828 | 6 | 291 | 0.0 | 0.0 | 0.18 | 0.48 | 0.48 | 96 | 1008.7 |
| 20260506083326 | 6 | 283 | 0.0 | 0.0 | 0.18 | 0.48 | 0.48 | 96 | 1008.9 |
| 20260506082823 | 6 | 323 | 0.0 | 0.0 | 0.00 | 0.46 | 0.46 | 96 | 1009.1 |
| 20260506082320 | 6 | 335 | 0.0 | 1.6 | 0.00 | 0.46 | 0.46 | 96 | 1009.2 |
| 20260506081816 | 6 | 327 | 0.0 | 1.6 | 0.00 | 0.46 | 0.46 | 96 | 1009.4 |
| 20260506081314 | 6 | 324 | 0.0 | 0.0 | 0.00 | 0.46 | 0.46 | 96 | 1009.2 |
| 20260506080812 | 6 | 325 | 0.0 | 0.0 | 0.00 | 0.46 | 0.46 | 96 | 1009.2 |
| 20260506080308 | 6 | 325 | 0.0 | 0.0 | 0.00 | 0.46 | 0.46 | 96 | 1009.2 |
| 20260506073252 | 6 | 348 | 0.0 | 0.0 | 0.13 | 0.46 | 0.46 | 96 | 1008.7 |
| 20260506072749 | 6 | 349 | 0.0 | 0.0 | 0.13 | 0.46 | 0.46 | 96 | 1008.8 |
| 20260506072246 | 6 | 24 | 0.0 | 0.0 | 0.00 | 0.43 | 0.43 | 96 | 1008.8 |
| 20260506071744 | 6 | 31 | 0.0 | 0.0 | 0.00 | 0.43 | 0.43 | 96 | 1008.4 |
| 20260506071241 | 6 | 23 | 0.0 | 0.0 | 0.18 | 0.43 | 0.43 | 96 | 1008.8 |
| 20260506070738 | 7 | 322 | 0.0 | 0.0 | 0.18 | 0.43 | 0.43 | 96 | 1009.4 |
| 20260506070235 | 6 | 324 | 0.0 | 1.6 | 0.00 | 0.41 | 0.41 | 96 | 1009.5 |
| 20260506062212 | 7 | 135 | 0.0 | 0.0 | 0.13 | 0.36 | 0.36 | 96 | 1008.7 |
| 20260506061708 | 7 | 333 | 0.0 | 0.0 | 0.18 | 0.33 | 0.33 | 96 | 1008.7 |
| 20260506061206 | 7 | 340 | 0.0 | 3.2 | 0.18 | 0.33 | 0.33 | 96 | 1009.3 |
| 20260506060704 | 7 | 339 | 3.2 | 3.2 | 0.13 | 0.30 | 0.30 | 96 | 1009.3 |
| 20260506060201 | 7 | 315 | 0.0 | 0.0 | 0.30 | 0.30 | 0.30 | 96 | 1009.3 |
| 20260506051133 | 7 | 328 | 0.0 | 0.0 | 0.13 | 0.13 | 0.13 | 96 | 1009.1 |
| 20260506050631 | 7 | 322 | 0.0 | 1.6 | 0.00 | 0.10 | 0.10 | 96 | 1009.4 |
| 20260506050128 | 7 | 331 | 0.0 | 1.6 | 0.18 | 0.10 | 0.10 | 96 | 1009.2 |
| 20260506045121 | 7 | 301 | 0.0 | 0.0 | 0.13 | 0.08 | 0.08 | 96 | 1009.1 |
| 20260506044619 | 7 | 281 | 0.0 | 0.0 | 0.00 | 0.05 | 0.05 | 96 | 1009.1 |
| 20260506044116 | 7 | 288 | 0.0 | 0.0 | 0.00 | 0.05 | 0.05 | 96 | 1009.3 |
| 20260506043613 | 7 | 336 | 0.0 | 0.0 | 0.18 | 0.05 | 0.05 | 96 | 1008.8 |
| 20260506043111 | 7 | 301 | 0.0 | 0.0 | 0.18 | 0.05 | 0.05 | 96 | 1008.7 |
| 20260506042610 | 7 | 321 | 0.0 | 0.0 | 0.00 | 0.03 | 0.03 | 96 | 1008.9 |
| 20260506042107 | 7 | 243 | 0.0 | 0.0 | 0.00 | 0.03 | 0.03 | 96 | 1008.9 |
| 20260506041606 | 7 | 243 | 0.0 | 0.0 | 0.13 | 0.03 | 0.03 | 96 | 1009.1 |
| 20260506041102 | 7 | 254 | 0.0 | 0.0 | 0.13 | 0.03 | 0.03 | 96 | 1009.1 |
| 20260506040600 | 7 | 301 | 0.0 | 0.0 | 0.00 | 0.00 | 0.00 | 96 | 1009.1 |
| 20260506040056 | 7 | 301 | 0.0 | 0.0 | 0.18 | 1.55 | 1.55 | 96 | 1009.2 |
| 20260506035553 | 7 | 301 | 0.0 | 0.0 | 0.00 | 1.52 | 1.52 | 96 | 1009.3 |
| 20260506035050 | 7 | 301 | 0.0 | 0.0 | 0.13 | 1.52 | 1.52 | 96 | 1009.1 |
| 20260506034547 | 7 | 313 | 0.0 | 0.0 | 0.13 | 1.52 | 1.52 | 95 | 1009.4 |
| 20260506034044 | 7 | 321 | 0.0 | 0.0 | 0.18 | 1.50 | 1.50 | 96 | 1009.5 |
| 20260506033541 | 8 | 329 | 0.0 | 0.0 | 0.13 | 1.47 | 1.47 | 96 | 1009.4 |
| 20260506033038 | 8 | 328 | 0.0 | 0.0 | 0.13 | 1.47 | 1.47 | 96 | 1009.2 |
| 20260506032536 | 8 | 311 | 0.0 | 0.0 | 0.00 | 1.45 | 1.45 | 96 | 1008.8 |
| 20260506032032 | 8 | 316 | 0.0 | 0.0 | 0.18 | 1.45 | 1.45 | 96 | 1009.1 |
| 20260506031530 | 8 | 311 | 0.0 | 0.0 | 0.18 | 1.45 | 1.45 | 95 | 1008.9 |
| 20260506031027 | 8 | 217 | 0.0 | 0.0 | 0.00 | 1.42 | 1.42 | 95 | 1009.2 |
| 20260506030525 | 8 | 209 | 0.0 | 0.0 | 0.13 | 1.42 | 1.42 | 96 | 1008.9 |
| 20260506030022 | 8 | 212 | 0.0 | 0.0 | 0.13 | 1.42 | 1.42 | 95 | 1009.2 |
| 20260506025519 | 8 | 210 | 0.0 | 0.0 | 0.18 | 1.40 | 1.40 | 95 | 1009.6 |
| 20260506025015 | 8 | 210 | 0.0 | 0.0 | 0.36 | 1.40 | 1.40 | 95 | 1009.4 |
| 20260506024512 | 8 | 185 | 0.0 | 0.0 | 0.18 | 1.37 | 1.37 | 95 | 1009.4 |
| 20260506024008 | 8 | 185 | 0.0 | 0.0 | 0.13 | 1.35 | 1.35 | 95 | 1009.5 |
| 20260506023504 | 8 | 185 | 0.0 | 0.0 | 0.13 | 1.35 | 1.35 | 95 | 1009.3 |
| 20260506023001 | 8 | 184 | 0.0 | 0.0 | 0.18 | 1.32 | 1.32 | 95 | 1009.4 |
| 20260506022459 | 8 | 167 | 0.0 | 0.0 | 0.30 | 1.32 | 1.32 | 95 | 1009.5 |
| 20260506021957 | 8 | 187 | 0.0 | 0.0 | 0.13 | 1.30 | 1.30 | 95 | 1009.5 |
| 20260506021454 | 8 | 215 | 0.0 | 0.0 | 0.18 | 1.27 | 1.27 | 95 | 1009.5 |
| 20260506020951 | 8 | 215 | 0.0 | 0.0 | 0.30 | 1.27 | 1.27 | 95 | 1009.4 |
| 20260506020449 | 8 | 223 | 0.0 | 0.0 | 0.13 | 1.24 | 1.24 | 95 | 1009.5 |
| 20260506015945 | 8 | 217 | 0.0 | 0.0 | 0.18 | 1.22 | 1.22 | 95 | 1009.2 |
| 20260506015443 | 8 | 234 | 0.0 | 1.6 | 0.18 | 1.22 | 1.22 | 95 | 1009.3 |
| 20260506014940 | 8 | 316 | 0.0 | 0.0 | 0.00 | 1.19 | 1.19 | 95 | 1009.5 |
| 20260506014437 | 8 | 301 | 0.0 | 1.6 | 0.13 | 1.19 | 1.19 | 95 | 1009.4 |
| 20260506013933 | 8 | 315 | 0.0 | 1.6 | 0.00 | 1.17 | 1.17 | 95 | 1009.6 |
| 20260506013431 | 8 | 306 | 0.0 | 1.6 | 0.00 | 1.17 | 1.17 | 95 | 1009.3 |
| 20260506012927 | 8 | 295 | 0.0 | 0.0 | 0.18 | 1.17 | 1.17 | 95 | 1009.1 |
| 20260506012424 | 8 | 273 | 0.0 | 0.0 | 0.13 | 1.14 | 1.14 | 95 | 1008.9 |
| 20260506011921 | 8 | 301 | 0.0 | 0.0 | 0.13 | 1.14 | 1.14 | 95 | 1008.8 |
| 20260506011418 | 8 | 301 | 0.0 | 0.0 | 0.18 | 1.12 | 1.12 | 95 | 1008.6 |
| 20260506010915 | 8 | 303 | 0.0 | 0.0 | 0.18 | 1.12 | 1.12 | 95 | 1008.7 |
| 20260506010414 | 8 | 307 | 0.0 | 0.0 | 0.00 | 1.09 | 1.09 | 95 | 1008.7 |
| 20260506005910 | 8 | 314 | 0.0 | 0.0 | 0.13 | 1.09 | 1.09 | 95 | 1008.7 |
| 20260506005408 | 8 | 321 | 0.0 | 0.0 | 0.13 | 1.09 | 1.09 | 95 | 1008.7 |
| 20260506004902 | 8 | 320 | 0.0 | 1.6 | 0.00 | 1.07 | 1.07 | 95 | 1008.5 |
| 20260506004401 | 8 | 254 | 0.0 | 0.0 | 0.18 | 1.07 | 1.07 | 95 | 1008.7 |
| 20260506003856 | 8 | 245 | 0.0 | 0.0 | 0.18 | 1.07 | 1.07 | 95 | 1008.4 |
| 20260506003353 | 8 | 245 | 0.0 | 0.0 | 0.18 | 1.04 | 1.04 | 95 | 1008.6 |
| 20260506002849 | 8 | 244 | 0.0 | 0.0 | 0.18 | 1.04 | 1.04 | 95 | 1008.3 |
| 20260506002345 | 8 | 284 | 0.0 | 0.0 | 0.13 | 1.02 | 1.02 | 95 | 1008.6 |
| 20260506001841 | 8 | 281 | 0.0 | 0.0 | 0.13 | 1.02 | 1.02 | 95 | 1008.6 |
| 20260506001338 | 8 | 325 | 1.6 | 1.6 | 0.00 | 0.99 | 0.99 | 95 | 1008.5 |
| 20260506000835 | 9 | 310 | 0.0 | 0.0 | 0.18 | 0.99 | 0.99 | 95 | 1008.5 |
| 20260506000333 | 9 | 354 | 0.0 | 0.0 | 0.18 | 0.99 | 0.99 | 95 | 1008.5 |
| 20260505235830 | 9 | 87 | 0.0 | 0.0 | 0.00 | 0.97 | 0.97 | 95 | 1008.5 |
| 20260505235327 | 9 | 87 | 0.0 | 0.0 | 0.13 | 0.97 | 0.97 | 95 | 1008.3 |
| 20260505234824 | 9 | 90 | 0.0 | 0.0 | 0.13 | 0.97 | 0.97 | 94 | 1008.2 |
| 20260505234322 | 9 | 115 | 0.0 | 0.0 | 0.18 | 0.94 | 0.94 | 94 | 1008.5 |
| 20260505233819 | 9 | 127 | 0.0 | 0.0 | 0.18 | 0.94 | 0.94 | 94 | 1008.5 |
| 20260505233317 | 9 | 214 | 0.0 | 0.0 | 0.00 | 0.91 | 0.91 | 94 | 1008.7 |
| 20260505232814 | 9 | 298 | 0.0 | 1.6 | 0.13 | 0.91 | 0.91 | 94 | 1008.7 |
| 20260505232311 | 9 | 347 | 0.0 | 0.0 | 0.13 | 0.91 | 0.91 | 94 | 1008.7 |
| 20260505231808 | 9 | 336 | 0.0 | 1.6 | 0.00 | 0.89 | 0.89 | 94 | 1008.7 |
| 20260505231306 | 9 | 329 | 0.0 | 1.6 | 0.00 | 0.89 | 0.89 | 94 | 1008.8 |
| 20260505230804 | 9 | 309 | 0.0 | 0.0 | 0.18 | 0.89 | 0.89 | 94 | 1008.7 |
| 20260505230300 | 9 | 320 | 0.0 | 1.6 | 0.18 | 0.89 | 0.89 | 94 | 1008.5 |
| 20260505225757 | 9 | 315 | 3.2 | 3.2 | 0.00 | 0.86 | 0.86 | 94 | 1008.5 |
| 20260505225254 | 9 | 326 | 0.0 | 1.6 | 0.00 | 0.86 | 0.86 | 94 | 1008.7 |
| 20260505224749 | 9 | 77 | 1.6 | 1.6 | 0.13 | 0.86 | 0.86 | 94 | 1008.4 |
| 20260505224247 | 9 | 319 | 0.0 | 1.6 | 0.13 | 0.86 | 0.86 | 94 | 1008.3 |
| 20260505223744 | 9 | 357 | 0.0 | 1.6 | 0.18 | 0.84 | 0.84 | 94 | 1008.3 |
| 20260505223241 | 9 | 228 | 0.0 | 0.0 | 0.18 | 0.84 | 0.84 | 94 | 1008.2 |
| 20260505222737 | 9 | 24 | 0.0 | 1.6 | 0.00 | 0.81 | 0.81 | 94 | 1008.2 |
| 20260505222233 | 9 | 107 | 0.0 | 1.6 | 0.13 | 0.81 | 0.81 | 94 | 1008.2 |
| 20260505221730 | 9 | 315 | 0.0 | 0.0 | 0.13 | 0.81 | 0.81 | 94 | 1008.0 |
| 20260505221227 | 9 | 56 | 0.0 | 0.0 | 0.00 | 0.79 | 0.79 | 94 | 1008.1 |
| 20260505220724 | 9 | 92 | 0.0 | 1.6 | 0.00 | 0.79 | 0.79 | 94 | 1008.1 |
| 20260505220222 | 9 | 85 | 0.0 | 4.8 | 0.00 | 0.79 | 0.79 | 94 | 1008.2 |
| 20260505215719 | 9 | 135 | 0.0 | 1.6 | 0.00 | 0.79 | 0.79 | 94 | 1008.0 |
| 20260505215217 | 10 | 327 | 0.0 | 3.2 | 0.18 | 0.79 | 0.79 | 94 | 1008.1 |
| 20260505214714 | 10 | 30 | 0.0 | 1.6 | 0.18 | 0.79 | 0.79 | 94 | 1008.1 |
| 20260505214212 | 10 | 315 | 0.0 | 1.6 | 0.18 | 0.76 | 0.76 | 94 | 1008.0 |
| 20260505213709 | 10 | 85 | 0.0 | 3.2 | 0.18 | 0.76 | 0.76 | 94 | 1008.1 |
| 20260505213206 | 10 | 326 | 3.2 | 4.8 | 0.13 | 0.74 | 0.74 | 94 | 1008.1 |
| 20260505212702 | 10 | 226 | 0.0 | 0.0 | 0.30 | 0.74 | 0.74 | 94 | 1008.2 |
| 20260505212159 | 10 | 250 | 0.0 | 0.0 | 0.18 | 0.71 | 0.71 | 94 | 1008.0 |
| 20260505211656 | 10 | 279 | 0.0 | 1.6 | 0.13 | 0.69 | 0.69 | 94 | 1008.2 |
| 20260505211154 | 10 | 342 | 1.6 | 3.2 | 0.30 | 0.69 | 0.69 | 94 | 1008.0 |
| 20260505210650 | 10 | 325 | 1.6 | 4.8 | 0.30 | 0.66 | 0.66 | 93 | 1008.2 |
| 20260505210147 | 10 | 342 | 1.6 | 3.2 | 0.30 | 0.64 | 0.64 | 93 | 1008.0 |
| 20260505205644 | 10 | 326 | 1.6 | 3.2 | 0.30 | 0.61 | 0.61 | 93 | 1008.0 |
| 20260505205142 | 10 | 346 | 1.6 | 3.2 | 0.30 | 0.58 | 0.58 | 93 | 1008.0 |